{"data":{"norad_id":48649,"intl_designator":"2021-044M","name":"STARLINK-2673","alt_names":[],"object_type":"PAYLOAD","status":"ACTIVE","operator":null,"country":"US","launch_date":"2021-05-26","launch_site_code":"AFETR","launch_vehicle":null,"mission":null,"orbit_class":"UNKNOWN","rcs_meters":null,"size_class":null,"mass_kg":null,"dimensions":null,"purposes":["comms"],"wikipedia_slug":null,"has_3d_model":false,"image_url":null,"decayed_at":null,"tle_current":{"epoch":"2026-09-19T18:50:57.164640Z","epoch_age_seconds":99030,"freshness":"FRESH","line1":"1 48649U 21044M   26262.78538385 -.00000441  00000+0 -24309-5 0  9990","line2":"2 48649  53.1602 290.5326 0001226  90.4481 269.6661 15.31701049293566","mean_motion":15.31701049,"eccentricity":0.0001226,"inclination_deg":53.1602,"raan_deg":290.5326,"arg_perigee_deg":90.4481,"mean_anomaly_deg":269.6661,"bstar":-2.4309e-6,"rev_number":29356,"period_min":94.013123575265,"perigee_km":469.89719627677,"apogee_km":471.57654014926,"semimajor_km":6848.873868213,"source":"CELESTRAK","updated_at":"2026-09-20T09:00:39.141372Z"}}}